Vorticity
12 11 11 11 10 10 11 11 12 12 12 12 12 11 10 10 9 8 7 8 7 6 4 4 3 2 2 3 4 4 4 3 4 4 5 6 6 6 6 6 7 8 8 9 9 9 10 10 10 10 10 11 11 10 10 10 10 9 9 9 9 8 8 9 9 10 10 12 8
12 11 11 11 11 11 11 12 12 12 12 12 12 11 10 10 9 8 7 8 7 5 3 3 3 2 2 3 4 4 4 3 4 4 5 6 6 6 6 6 6 7 7 8 8 9 9 10 10 10 10 10 10 10 10 10 10 9 9 8 8 7 7 7 7 8 8 9 7
11 11 12 12 12 13 13 13 13 13 13 12 12 11 10 10 9 9 7 6 5 4 4 4 3 3 3 2 3 4 4 3 3 4 4 5 5 5 6 6 6 7 7 7 8 8 9 9 10 10 10 10 10 11 11 11 10 9 8 7 6 7 8 9 8 8 9 10 9
11 11 12 12 13 13 14 14 14 14 14 13 12 12 11 10 10 9 7 5 5 6 6 4 3 3 3 2 2 3 4 4 4 4 4 4 5 5 6 6 6 7 7 7 8 8 8 9 9 10 10 10 11 11 11 10 9 9 8 7 8 10 10 7 5 7 11 14 12
10 10 10 11 11 12 13 14 14 15 14 14 13 12 11 11 10 8 7 7 7 7 5 4 3 3 3 3 2 3 3 4 4 4 4 4 5 5 6 6 7 7 8 8 9 9 9 9 9 9 10 10 10 10 10 9 9 9 8 7 7 7 4 0 3 8 13 16 14
8 9 9 9 10 10 12 13 14 15 15 14 14 13 12 11 10 8 8 8 7 5 4 4 4 3 3 3 3 3 4 4 4 4 4 4 4 5 6 7 7 8 9 10 10 10 10 10 10 10 10 10 10 9 9 8 9 9 8 8 9 9 9 7 9 11 14 15 14
7 7 7 7 7 8 9 10 12 13 14 15 15 14 13 11 10 10 9 7 6 5 5 5 4 4 3 4 4 4 4 4 4 4 4 4 5 6 7 7 8 9 10 11 11 11 11 11 10 10 10 10 9 9 8 8 8 9 10 13 16 16 15 13 13 13 14 14 15
6 6 6 6 6 7 7 8 9 10 12 13 14 14 13 12 11 10 9 8 8 7 6 6 5 5 4 5 5 5 5 4 4 4 5 5 5 6 7 8 9 10 10 11 12 12 12 12 11 11 10 9 9 9 10 10 11 12 13 16 20 20 19 18 16 16 15 15 15
7 7 7 7 7 7 7 7 8 9 10 11 12 13 12 12 12 11 10 10 9 8 7 7 7 6 6 7 6 6 6 6 5 5 5 6 7 7 8 9 10 10 11 11 12 12 13 12 12 11 11 10 10 11 12 13 14 14 14 14 16 16 16 16 16 15 15 14 13
10 9 9 9 9 8 8 8 8 9 9 10 10 11 11 11 12 12 12 11 10 10 10 9 8 8 8 9 8 8 7 7 6 5 6 7 8 9 9 10 10 10 11 12 12 13 13 13 13 13 12 12 12 12 13 13 14 14 14 13 13 13 12 11 11 11 10 10 10
12 11 11 11 11 10 10 10 10 10 10 10 10 10 11 11 12 13 13 12 12 12 11 11 11 11 10 10 10 9 8 7 7 6 7 9 10 10 10 10 11 12 13 13 14 14 14 14 14 14 14 13 12 12 12 12 12 12 12 12 11 10 9 8 8 7 7 7 7
13 12 12 12 12 12 12 12 12 11 11 11 11 12 12 12 13 13 13 13 13 13 13 13 13 13 12 11 10 10 9 8 8 8 10 12 13 13 12 13 14 15 16 16 16 15 15 14 14 14 14 13 13 12 12 12 11 11 11 10 9 8 8 7 7 6 6 6 6
12 12 12 12 12 12 12 12 12 12 12 12 12 12 12 13 13 13 13 13 13 14 14 15 14 14 13 11 10 10 10 11 12 13 15 16 16 16 16 17 18 19 19 18 16 15 14 14 13 13 13 13 12 12 11 11 10 10 9 8 7 7 6 6 5 5 5 5 4
11 11 11 11 11 11 11 11 11 11 11 11 12 12 12 12 12 12 13 13 13 14 14 14 14 13 13 12 12 13 14 16 18 20 20 20 20 20 21 22 21 20 19 17 16 14 14 13 13 12 12 12 11 9 8 7 7 7 6 6 5 5 4 4 4 4 4 4 4
10 10 10 10 10 10 10 10 11 11 11 11 11 11 11 12 12 12 12 12 13 14 14 14 14 15 15 16 17 19 21 23 24 24 24 23 23 23 22 21 19 17 16 15 14 13 12 11 11 10 10 9 8 7 6 5 5 5 5 4 4 4 3 3 3 3 3 3 4
10 10 10 10 10 10 11 11 11 11 11 11 11 11 12 12 12 13 13 13 14 15 16 17 18 19 21 22 23 24 25 25 25 25 24 23 22 21 19 17 16 15 14 13 12 11 10 9 8 7 7 6 6 5 5 4 4 4 4 3 3 3 3 3 3 4 4 4 5
10 10 11 11 11 11 11 11 11 12 12 12 12 13 13 14 15 16 17 17 19 20 21 22 22 23 24 25 24 24 24 23 22 21 19 18 16 16 15 14 13 12 11 11 10 9 8 7 6 6 5 5 5 4 4 4 3 3 3 2 3 3 3 3 4 4 5 6 6
10 10 10 11 11 11 11 11 12 12 13 13 14 16 17 18 19 20 21 22 22 22 23 23 23 23 22 22 21 20 19 18 16 14 13 12 13 12 12 11 10 9 9 8 7 7 6 6 5 5 4 4 4 3 3 2 2 2 2 2 3 3 4 5 5 6 6 7 8
10 10 10 10 10 10 11 11 12 13 14 16 17 18 20 21 21 22 22 23 22 21 20 20 20 19 18 17 16 15 13 11 11 10 10 10 10 10 9 8 7 7 6 6 5 5 5 4 4 4 3 3 2 2 2 2 2 2 3 3 4 5 6 7 7 8 9 10 10
9 9 9 10 10 11 12 13 14 15 17 18 19 20 20 21 20 20 20 20 19 18 16 16 15 14 13 12 10 9 9 8 8 8 8 8 7 7 7 6 6 5 5 5 4 4 4 3 3 3 2 2 1 2 2 2 3 4 5 6 7 7 8 9 10 10 11 11 12
9 9 10 11 12 13 14 15 16 17 17 18 18 18 18 18 17 17 16 15 14 13 12 11 11 10 9 8 7 6 6 6 6 6 6 6 6 6 5 5 5 4 4 4 4 3 3 3 2 2 2 2 2 3 4 5 6 7 8 8 9 10 10 10 11 11 12 12 13
10 11 11 12 13 14 15 16 16 16 16 16 16 15 14 14 13 13 12 11 10 9 9 8 7 7 6 6 5 5 5 5 6 6 5 5 5 5 5 4 4 3 3 3 2 2 2 2 2 2 2 3 4 6 6 7 8 9 9 10 10 10 11 11 11 12 13 13 14
11 12 13 13 14 15 15 15 15 14 13 13 12 12 11 11 10 9 8 8 7 7 6 5 5 5 5 5 5 5 5 5 6 6 6 5 5 4 4 3 3 2 2 2 2 2 2 2 3 4 5 6 6 7 8 8 9 9 9 10 10 11 11 12 13 13 14 15 15
12 12 13 13 14 14 14 13 12 12 11 11 10 9 9 8 7 7 6 6 6 5 5 5 5 5 5 5 5 6 6 5 5 5 5 4 3 3 2 2 2 2 2 2 3 3 4 4 5 6 7 7 8 8 8 9 9 10 10 10 11 12 13 13 14 15 16 16 16
12 12 12 13 13 12 11 11 10 10 9 9 8 7 7 7 6 6 6 5 5 5 5 5 5 6 6 6 6 6 6 5 4 3 2 2 2 2 1 2 2 3 3 3 4 5 5 6 7 7 7 8 8 9 9 10 11 11 12 12 13 13 14 15 16 16 16 16 15
11 11 11 11 10 10 9 9 8 8 7 7 7 7 6 6 6 6 6 6 6 6 6 6 6 6 6 6 5 5 4 4 2 2 1 1 2 2 3 3 4 4 4 4 5 6 6 7 8 8 8 9 9 10 11 12 13 13 13 14 14 15 15 15 16 16 15 14 13
10 9 9 8 8 8 8 7 7 7 6 6 6 6 6 5 5 6 6 7 6 6 6 6 6 5 5 4 3 3 2 2 2 2 2 2 3 4 4 5 5 5 5 5 6 7 8 8 9 9 10 11 11 12 12 13 13 14 14 15 15 15 15 15 14 13 12 11 10
8 7 7 7 7 7 6 6 6 5 5 5 6 6 5 6 6 7 7 7 6 6 6 6 5 4 3 3 2 2 1 1 2 3 3 4 5 5 5 6 6 6 6 7 8 9 9 9 10 11 11 12 13 13 13 13 14 14 15 15 15 15 14 13 12 10 9 7 6
6 6 6 6 6 6 5 5 5 5 5 6 6 6 6 7 7 7 7 6 6 6 5 4 3 2 2 2 2 2 2 3 4 4 5 5 6 6 6 6 6 7 8 9 9 10 10 11 11 12 12 13 13 13 14 14 14 14 15 15 14 13 11 10 8 7 6 5 5
6 6 6 6 5 5 4 4 5 6 6 7 7 7 7 7 7 7 6 6 6 5 3 1 1 1 2 2 2 3 4 5 5 5 6 6 6 6 7 7 8 9 10 10 11 11 11 12 12 13 13 13 13 14 14 14 14 14 13 12 11 10 8 7 6 5 5 5 4
7 6 6 5 5 5 5 6 7 7 7 8 8 8 7 7 7 6 6 5 3 2 1 1 2 2 2 3 4 5 6 6 6 6 6 6 7 7 8 9 10 10 11 11 11 12 12 12 13 13 13 13 14 14 14 14 13 12 11 9 8 7 6 5 5 5 5 4 4
7 6 6 5 5 6 7 7 8 8 8 8 8 7 7 7 6 4 3 3 2 1 1 2 3 4 4 6 6 7 7 6 7 7 7 8 8 9 10 10 11 11 11 11 12 12 13 13 13 13 14 14 14 14 13 12 11 9 8 7 6 5 5 5 5 5 4 4 4
7 6 6 6 6 7 8 9 9 8 8 7 7 7 6 5 4 3 2 2 2 2 3 4 5 6 7 7 7 7 7 7 7 8 8 9 10 10 10 11 11 11 11 12 12 13 13 13 14 14 14 14 13 12 11 9 8 7 6 5 5 5 5 5 5 4 4 4 3
7 6 7 7 7 8 9 9 8 7 7 7 6 6 4 3 3 2 2 3 4 5 6 7 7 7 7 7 7 7 7 8 8 9 9 10 10 10 11 11 11 11 12 12 13 13 14 14 14 14 13 12 11 9 8 7 6 5 5 5 5 5 5 4 4 4 3 3 3
7 7 7 8 8 8 8 8 7 6 6 5 5 4 3 3 3 3 4 5 6 6 7 8 7 7 7 7 7 8 8 9 9 10 10 10 10 10 11 11 12 12 12 13 13 14 14 14 13 12 11 9 8 7 6 5 5 5 5 5 5 5 4 4 4 3 3 3 3
7 8 8 8 8 8 7 6 6 5 5 4 3 3 3 3 4 5 6 7 7 7 7 7 6 7 7 7 8 9 10 10 10 10 10 10 11 11 11 12 12 13 13 14 14 13 13 12 11 10 8 7 6 5 5 5 5 5 5 5 4 4 4 3 3 3 3 3 3
8 8 8 7 7 6 6 5 4 4 3 3 3 3 4 5 7 7 8 7 7 7 6 6 7 7 8 9 9 10 10 10 10 10 10 11 11 12 12 12 13 13 13 13 13 12 11 10 8 7 6 5 5 5 5 5 5 5 5 4 4 4 3 3 3 3 3 4 4
8 8 7 6 5 5 4 3 3 3 3 3 4 6 7 8 8 7 7 7 6 6 6 7 8 9 9 10 10 10 10 11 11 11 11 12 12 12 12 13 13 13 13 12 11 10 9 7 6 6 5 5 5 5 5 5 5 5 4 4 3 3 3 3 3 3 4 5 5
8 7 6 5 4 3 2 2 3 3 4 6 7 8 8 8 7 7 6 6 6 7 7 8 9 10 10 10 10 10 11 11 11 12 12 12 13 13 13 13 13 12 12 11 9 8 7 6 5 5 5 5 5 5 5 5 5 4 4 3 3 3 3 4 4 4 5 6 7
7 6 5 3 2 2 2 2 4 6 7 8 9 8 8 7 6 6 6 7 8 8 9 10 10 10 10 10 10 11 11 11 12 12 13 12 12 13 13 13 12 11 10 9 7 6 6 5 5 5 5 5 5 5 5 4 4 3 3 3 3 3 4 5 5 6 6 7 8
5 4 3 2 1 2 3 5 7 8 9 9 8 7 6 5 6 6 7 8 9 10 10 10 10 10 10 11 11 11 11 11 12 13 13 13 13 13 12 12 10 9 8 7 6 5 5 5 5 5 5 5 5 5 4 3 3 3 3 3 4 4 5 5 6 7 8 8 9
Height
3088 3088 3089 3090 3090 3091 3092 3092 3093 3093 3093 3093 3094 3094 3094 3094 3094 3094 3094 3095 3095 3095 3096 3097 3097 3098 3099 3099 3100 3101 3101 3101 3102 3102 3102 3103 3103 3103 3103 3103 3104 3104 3104 3104 3104 3104 3104 3104 3104 3104 3104 3104 3104 3104 3104 3104 3104 3103 3103 3103 3103 3102 3102 3101 3101 3101 3100 3100 3100
3086 3087 3087 3088 3089 3090 3090 3090 3091 3091 3091 3092 3092 3092 3093 3093 3093 3093 3093 3094 3094 3094 3095 3095 3096 3096 3097 3098 3099 3099 3100 3100 3100 3101 3101 3101 3101 3101 3102 3102 3102 3103 3103 3103 3103 3103 3103 3103 3103 3103 3103 3103 3103 3103 3103 3102 3102 3102 3101 3101 3101 3100 3100 3100 3099 3099 3098 3098 3097
3085 3085 3086 3087 3088 3088 3089 3089 3089 3090 3090 3090 3091 3091 3091 3091 3092 3092 3092 3092 3093 3093 3093 3094 3095 3095 3095 3096 3097 3098 3098 3099 3099 3099 3100 3100 3100 3100 3100 3101 3101 3101 3101 3101 3102 3102 3102 3102 3102 3102 3102 3102 3102 3101 3101 3100 3100 3100 3099 3099 3099 3098 3098 3097 3097 3097 3096 3095 3095
3083 3084 3085 3085 3086 3087 3087 3088 3088 3088 3089 3089 3089 3090 3090 3090 3090 3091 3091 3091 3091 3092 3092 3093 3093 3094 3094 3095 3095 3096 3097 3097 3098 3098 3098 3098 3098 3099 3099 3099 3100 3100 3100 3100 3100 3100 3100 3100 3100 3100 3100 3100 3100 3100 3099 3099 3098 3098 3098 3097 3097 3097 3097 3097 3096 3095 3094 3094 3093
3082 3083 3083 3084 3085 3085 3085 3086 3086 3086 3087 3087 3088 3088 3089 3089 3089 3090 3090 3090 3090 3090 3091 3091 3092 3092 3093 3093 3094 3095 3095 3096 3096 3096 3097 3097 3097 3097 3097 3098 3098 3099 3099 3099 3099 3099 3099 3099 3099 3099 3099 3098 3098 3098 3098 3097 3097 3097 3096 3096 3095 3095 3095 3094 3093 3092 3092 3092 3091
3080 3081 3082 3083 3083 3084 3084 3085 3085 3085 3086 3086 3087 3087 3087 3088 3088 3088 3089 3089 3089 3090 3090 3090 3090 3091 3091 3092 3093 3093 3094 3094 3095 3095 3095 3095 3095 3095 3096 3096 3097 3097 3098 3098 3098 3098 3098 3098 3097 3097 3097 3097 3096 3096 3096 3095 3095 3095 3094 3094 3093 3093 3093 3092 3091 3091 3090 3090 3090
3079 3080 3080 3081 3082 3082 3083 3083 3084 3084 3085 3085 3085 3086 3086 3086 3087 3087 3087 3088 3088 3088 3088 3089 3089 3090 3090 3090 3091 3092 3092 3093 3093 3093 3093 3093 3094 3094 3094 3095 3096 3096 3097 3097 3097 3097 3096 3096 3096 3096 3095 3095 3095 3094 3094 3094 3093 3093 3093 3092 3092 3092 3091 3090 3090 3089 3089 3089 3088
3078 3079 3079 3080 3080 3081 3081 3082 3082 3083 3083 3084 3084 3084 3085 3085 3085 3085 3086 3086 3086 3087 3087 3087 3088 3088 3089 3089 3090 3090 3091 3091 3091 3091 3092 3092 3092 3092 3093 3094 3095 3095 3095 3095 3095 3095 3095 3095 3094 3094 3094 3094 3093 3093 3092 3092 3092 3091 3091 3090 3090 3090 3090 3090 3089 3088 3088 3087 3086
3076 3077 3078 3078 3079 3080 3080 3080 3081 3081 3082 3082 3083 3083 3083 3084 3084 3084 3085 3085 3085 3085 3086 3086 3087 3087 3087 3088 3089 3089 3089 3090 3090 3090 3090 3090 3090 3091 3092 3093 3093 3094 3094 3094 3094 3093 3093 3093 3093 3092 3092 3092 3091 3091 3091 3090 3090 3090 3089 3089 3089 3089 3088 3088 3087 3087 3086 3085 3085
3075 3076 3076 3077 3078 3078 3079 3079 3080 3080 3080 3081 3081 3081 3082 3082 3082 3083 3083 3084 3084 3084 3085 3085 3085 3086 3086 3087 3087 3088 3088 3088 3088 3088 3089 3089 3090 3090 3091 3091 3092 3092 3092 3092 3092 3092 3092 3091 3091 3091 3091 3090 3090 3090 3090 3089 3089 3088 3088 3087 3087 3086 3086 3085 3085 3084 3084 3083 3082
3074 3075 3075 3076 3076 3077 3077 3078 3078 3079 3079 3079 3080 3080 3080 3081 3081 3082 3082 3082 3083 3083 3084 3084 3085 3085 3085 3086 3086 3086 3087 3087 3087 3087 3087 3088 3089 3089 3090 3090 3090 3090 3090 3090 3090 3090 3090 3090 3090 3090 3090 3089 3089 3089 3088 3088 3087 3087 3086 3086 3085 3085 3084 3083 3083 3082 3081 3080 3080
3073 3073 3074 3074 3075 3075 3076 3076 3077 3077 3078 3078 3078 3079 3079 3080 3080 3080 3081 3081 3082 3082 3082 3083 3083 3084 3084 3084 3085 3085 3085 3085 3085 3086 3086 3087 3088 3088 3088 3088 3089 3089 3089 3089 3089 3089 3089 3089 3089 3088 3088 3088 3088 3087 3087 3086 3086 3085 3085 3084 3083 3083 3082 3081 3081 3080 3079 3078 3078
3071 3072 3072 3073 3074 3074 3075 3075 3075 3076 3076 3077 3077 3078 3078 3079 3079 3080 3080 3080 3081 3081 3081 3082 3082 3082 3083 3083 3083 3084 3084 3084 3085 3085 3086 3086 3086 3086 3087 3087 3087 3087 3087 3087 3087 3087 3087 3087 3087 3087 3086 3086 3086 3086 3085 3085 3084 3084 3083 3082 3081 3081 3080 3079 3079 3078 3077 3076 3075
3070 3071 3071 3072 3072 3073 3073 3074 3074 3075 3075 3075 3076 3076 3077 3077 3078 3078 3079 3079 3080 3080 3080 3080 3081 3081 3081 3082 3082 3083 3083 3084 3084 3085 3085 3085 3085 3085 3085 3085 3086 3086 3086 3086 3086 3086 3086 3086 3086 3085 3085 3085 3084 3084 3084 3083 3082 3082 3081 3080 3080 3079 3078 3077 3077 3076 3075 3074 3073
3069 3070 3070 3070 3071 3072 3072 3072 3073 3074 3074 3074 3075 3075 3076 3076 3077 3077 3078 3078 3078 3079 3079 3079 3080 3080 3080 3081 3081 3082 3082 3083 3083 3083 3083 3083 3084 3084 3084 3085 3085 3085 3085 3085 3085 3085 3085 3085 3084 3084 3083 3083 3083 3082 3082 3081 3080 3080 3079 3079 3078 3077 3076 3075 3075 3074 3073 3072 3071
3068 3068 3069 3070 3070 3070 3071 3071 3072 3072 3073 3073 3074 3074 3075 3075 3076 3076 3076 3077 3077 3077 3078 3078 3079 3079 3080 3080 3080 3081 3081 3081 3081 3082 3082 3082 3083 3083 3083 3084 3084 3084 3084 3084 3084 3083 3083 3083 3083 3082 3082 3081 3081 3080 3080 3080 3079 3078 3077 3077 3076 3075 3075 3074 3073 3072 3071 3070 3069
3067 3067 3068 3068 3069 3069 3070 3070 3071 3071 3072 3072 3073 3073 3074 3074 3074 3075 3075 3075 3076 3076 3077 3077 3078 3078 3079 3079 3079 3079 3080 3080 3080 3081 3081 3081 3082 3082 3082 3082 3082 3082 3082 3082 3082 3082 3081 3081 3081 3080 3080 3080 3079 3079 3078 3078 3077 3076 3076 3075 3074 3074 3073 3072 3071 3070 3069 3067 3066
3066 3066 3067 3067 3068 3068 3069 3069 3070 3070 3071 3071 3071 3072 3072 3073 3073 3074 3074 3074 3075 3075 3076 3076 3076 3077 3077 3078 3078 3079 3079 3079 3080 3080 3080 3081 3081 3081 3081 3081 3081 3081 3081 3081 3080 3080 3080 3080 3080 3079 3079 3078 3078 3077 3077 3076 3075 3075 3074 3073 3073 3072 3071 3070 3069 3067 3066 3065 3064
3065 3065 3066 3066 3067 3067 3068 3068 3069 3069 3070 3070 3070 3071 3071 3071 3072 3072 3073 3073 3074 3074 3074 3075 3075 3076 3076 3077 3077 3078 3078 3079 3079 3079 3080 3080 3080 3080 3080 3080 3080 3080 3080 3080 3079 3079 3079 3078 3078 3078 3077 3077 3076 3076 3075 3075 3074 3073 3072 3071 3070 3070 3069 3067 3066 3065 3064 3063 3061
3064 3065 3065 3065 3066 3066 3067 3067 3068 3068 3069 3069 3069 3070 3070 3070 3071 3071 3072 3072 3073 3073 3074 3074 3075 3075 3076 3076 3077 3077 3078 3078 3078 3079 3079 3079 3079 3079 3079 3079 3079 3079 3078 3078 3078 3078 3077 3077 3077 3076 3076 3075 3075 3074 3074 3073 3072 3071 3070 3070 3069 3067 3066 3065 3064 3063 3062 3060 3059
3063 3064 3064 3065 3065 3065 3066 3066 3067 3067 3068 3068 3069 3069 3070 3070 3070 3071 3071 3072 3072 3073 3074 3074 3075 3075 3075 3076 3076 3077 3077 3077 3078 3078 3078 3078 3078 3078 3078 3078 3078 3077 3077 3077 3077 3076 3076 3076 3075 3075 3075 3074 3073 3073 3072 3071 3070 3069 3068 3067 3066 3065 3064 3063 3062 3060 3059 3058 3057
3062 3063 3063 3064 3064 3065 3065 3066 3066 3067 3067 3067 3068 3068 3069 3070 3070 3070 3071 3072 3072 3073 3073 3074 3074 3075 3075 3075 3076 3076 3076 3076 3077 3077 3077 3077 3077 3077 3077 3076 3076 3076 3076 3076 3075 3075 3075 3075 3074 3074 3073 3072 3072 3071 3070 3069 3068 3067 3066 3065 3064 3063 3062 3060 3059 3058 3057 3055 3054
3061 3062 3062 3063 3064 3064 3065 3065 3065 3066 3066 3067 3068 3068 3069 3069 3070 3070 3071 3071 3072 3072 3073 3073 3074 3074 3075 3075 3075 3075 3075 3076 3076 3076 3076 3076 3076 3076 3075 3075 3075 3075 3075 3075 3075 3074 3074 3073 3073 3072 3071 3071 3070 3069 3068 3067 3066 3065 3064 3063 3062 3061 3060 3058 3057 3056 3055 3053 3052
3060 3061 3062 3062 3063 3064 3064 3065 3065 3065 3066 3067 3067 3068 3068 3069 3070 3070 3070 3071 3071 3072 3072 3073 3073 3074 3074 3074 3074 3075 3075 3075 3075 3075 3075 3075 3075 3075 3075 3074 3074 3074 3074 3073 3073 3073 3072 3072 3071 3070 3070 3069 3068 3067 3066 3065 3064 3063 3062 3061 3060 3059 3057 3056 3055 3054 3053 3051 3050
3060 3060 3061 3062 3062 3063 3064 3064 3065 3065 3066 3066 3067 3068 3068 3069 3069 3070 3070 3070 3071 3071 3072 3072 3073 3073 3073 3073 3074 3074 3074 3074 3074 3074 3074 3074 3074 3074 3074 3073 3073 3073 3072 3072 3071 3071 3070 3070 3070 3069 3068 3067 3066 3065 3064 3063 3062 3061 3060 3059 3058 3057 3055 3054 3053 3052 3050 3049 3048
3059 3060 3060 3061 3062 3063 3063 3064 3064 3065 3065 3066 3067 3067 3068 3068 3069 3069 3070 3070 3070 3071 3071 3071 3072 3072 3072 3073 3073 3073 3073 3073 3073 3073 3073 3073 3073 3073 3072 3072 3072 3071 3071 3070 3070 3070 3069 3068 3067 3067 3066 3065 3064 3063 3062 3061 3060 3059 3058 3057 3056 3055 3053 3052 3051 3050 3049 3047 3046
3059 3060 3060 3061 3061 3062 3063 3063 3064 3065 3065 3066 3066 3067 3067 3068 3068 3068 3069 3069 3070 3070 3070 3071 3071 3071 3071 3072 3072 3072 3072 3072 3072 3072 3072 3072 3072 3071 3071 3071 3070 3070 3069 3069 3068 3068 3067 3066 3065 3065 3064 3063 3062 3061 3060 3059 3058 3057 3056 3055 3054 3053 3051 3050 3049 3048 3047 3045 3044
3058 3059 3060 3060 3061 3062 3062 3063 3064 3064 3065 3065 3066 3066 3067 3067 3067 3068 3068 3069 3069 3069 3070 3070 3070 3070 3071 3071 3071 3071 3071 3071 3071 3071 3071 3071 3070 3070 3070 3069 3069 3068 3067 3067 3066 3066 3065 3064 3063 3063 3062 3061 3060 3059 3058 3057 3056 3055 3054 3053 3052 3051 3050 3049 3047 3046 3045 3044 3042
3058 3059 3059 3060 3060 3061 3062 3063 3063 3064 3064 3065 3065 3066 3066 3066 3067 3067 3068 3068 3068 3069 3069 3069 3070 3070 3070 3070 3070 3070 3070 3070 3070 3070 3070 3070 3069 3069 3068 3067 3067 3066 3065 3065 3065 3064 3063 3062 3061 3061 3060 3059 3058 3057 3056 3055 3055 3053 3052 3051 3050 3049 3048 3047 3046 3045 3043 3042 3040
3057 3058 3059 3060 3060 3061 3061 3062 3063 3063 3064 3064 3065 3065 3065 3066 3066 3067 3067 3067 3068 3068 3068 3069 3069 3069 3069 3069 3070 3070 3069 3069 3069 3069 3068 3068 3067 3067 3066 3066 3065 3065 3064 3063 3063 3062 3061 3060 3060 3059 3058 3057 3056 3055 3055 3054 3053 3052 3051 3050 3049 3048 3046 3045 3044 3043 3041 3040 3038
3057 3058 3058 3059 3060 3060 3061 3061 3062 3063 3063 3064 3064 3065 3065 3065 3066 3066 3066 3067 3067 3068 3068 3068 3068 3068 3068 3069 3068 3068 3068 3068 3068 3067 3067 3066 3066 3065 3065 3065 3064 3063 3062 3061 3061 3060 3059 3059 3058 3057 3056 3055 3055 3054 3053 3052 3051 3050 3049 3048 3047 3046 3045 3044 3042 3041 3039 3038 3036
3056 3057 3058 3058 3059 3060 3060 3061 3061 3062 3063 3063 3063 3064 3064 3065 3065 3065 3066 3066 3067 3067 3067 3067 3067 3067 3067 3067 3067 3067 3067 3066 3066 3066 3065 3065 3065 3064 3064 3063 3062 3061 3060 3060 3059 3058 3058 3057 3056 3055 3055 3054 3053 3052 3051 3050 3050 3049 3048 3047 3045 3044 3043 3042 3040 3039 3037 3036 3034
3056 3056 3057 3058 3059 3059 3060 3060 3061 3061 3062 3062 3063 3063 3064 3064 3065 3065 3065 3066 3066 3066 3066 3066 3066 3066 3066 3066 3066 3065 3065 3065 3065 3064 3064 3063 3063 3062 3062 3061 3061 3060 3059 3058 3058 3057 3056 3055 3055 3054 3053 3052 3051 3051 3050 3049 3048 3047 3046 3045 3044 3043 3041 3040 3039 3037 3035 3034 3032
3055 3056 3056 3057 3058 3059 3059 3060 3060 3061 3061 3062 3062 3063 3063 3064 3064 3064 3065 3065 3065 3065 3065 3065 3065 3065 3065 3065 3065 3064 3064 3064 3063 3063 3062 3062 3061 3061 3060 3060 3059 3058 3058 3057 3056 3055 3055 3054 3053 3053 3052 3051 3050 3050 3049 3048 3047 3046 3045 3044 3042 3041 3040 3038 3036 3035 3033 3031 3030
3055 3055 3056 3057 3057 3058 3059 3059 3060 3060 3061 3061 3062 3062 3063 3063 3063 3064 3064 3064 3064 3064 3064 3064 3064 3064 3064 3064 3063 3063 3063 3062 3062 3061 3061 3060 3060 3060 3059 3058 3058 3057 3056 3055 3055 3054 3054 3053 3052 3051 3051 3050 3049 3048 3047 3046 3045 3044 3043 3042 3041 3039 3038 3036 3035 3033 3031 3029 3027
3054 3055 3055 3056 3057 3057 3058 3059 3059 3060 3060 3061 3061 3062 3062 3062 3063 3063 3063 3063 3063 3063 3063 3063 3063 3063 3062 3062 3062 3061 3061 3061 3060 3060 3060 3059 3059 3058 3058 3057 3056 3056 3055 3054 3054 3053 3052 3052 3051 3050 3050 3049 3048 3047 3046 3045 3044 3043 3042 3040 3039 3038 3036 3034 3033 3031 3029 3027 3025
3053 3054 3055 3055 3056 3057 3058 3058 3059 3059 3060 3060 3060 3061 3061 3061 3062 3062 3062 3062 3062 3062 3062 3062 3061 3061 3061 3061 3060 3060 3060 3060 3059 3059 3058 3058 3057 3057 3056 3056 3055 3055 3054 3053 3053 3052 3051 3050 3050 3049 3048 3048 3047 3046 3045 3044 3042 3041 3040 3039 3037 3035 3034 3032 3030 3028 3026 3024 3022
3053 3054 3054 3055 3056 3056 3057 3058 3058 3059 3059 3060 3060 3060 3060 3060 3060 3061 3061 3061 3061 3061 3060 3060 3060 3060 3060 3060 3059 3059 3059 3058 3058 3057 3057 3056 3056 3055 3055 3054 3054 3053 3053 3052 3051 3051 3050 3050 3049 3048 3047 3046 3045 3044 3043 3042 3040 3039 3038 3037 3035 3034 3032 3030 3028 3026 3024 3021 3019
3052 3053 3054 3055 3055 3056 3057 3057 3058 3058 3058 3059 3059 3059 3059 3060 3060 3060 3060 3060 3060 3060 3060 3059 3059 3059 3059 3058 3058 3058 3057 3057 3056 3056 3055 3055 3055 3054 3054 3053 3053 3052 3051 3051 3050 3050 3049 3048 3047 3047 3046 3045 3044 3043 3041 3040 3039 3037 3036 3035 3033 3031 3030 3028 3025 3023 3021 3018 3016
3052 3053 3053 3054 3055 3055 3056 3056 3057 3057 3057 3058 3058 3058 3058 3059 3059 3059 3059 3059 3059 3058 3058 3058 3058 3058 3057 3057 3057 3056 3056 3055 3055 3055 3054 3054 3054 3053 3053 3052 3052 3051 3050 3050 3049 3048 3048 3047 3046 3045 3044 3043 3042 3041 3040 3038 3037 3035 3034 3033 3031 3029 3027 3025 3023 3020 3018 3015 3013
3051 3052 3053 3054 3054 3055 3055 3056 3056 3056 3057 3057 3057 3057 3057 3058 3058 3058 3058 3058 3057 3057 3057 3057 3056 3056 3056 3056 3055 3055 3055 3054 3054 3054 3053 3053 3052 3052 3051 3051 3051 3050 3050 3049 3048 3048 3047 3046 3045 3044 3043 3042 3041 3039 3038 3037 3035 3034 3032 3030 3029 3027 3025 3022 3020 3018 3015 3013 3010